Address 0x20bE67e99F83D7421380aCAF18EA6d02c5ac2A2A

 
 
Txn Hash Method
Block
From
To
Value [Txn Fee]
0x21b2773c08164b17f3b24b8d3c624e85af37c8ec926274199341c830cb5cba9cTransfer114219772021-10-02 12:40:2067 days 5 mins ago0x20be67e99f83d7421380acaf18ea6d02c5ac2a2aOUT0xfd99aa4d6892a1cef21fdb9d048357f9b8ea69c90.320121 BNB0.000105
0x94ef0d997c4f3f36e150eee515892818ab4f6fe4cbd65ba415efd20c0f62db1cTransfer114219562021-10-02 12:39:1767 days 6 mins ago0x20be67e99f83d7421380acaf18ea6d02c5ac2a2aOUT0x4478d372b53f4f4b17a583145b859093faae60ae200 BNB0.000105
0xa49d5cdef0e5eb3d800c372e07cf6da715d1bbb50b490dad5d68379bda74c91cTransfer114211062021-10-02 11:55:3167 days 50 mins ago0xfd99aa4d6892a1cef21fdb9d048357f9b8ea69c9 IN 0x20be67e99f83d7421380acaf18ea6d02c5ac2a2a0.320121156833823 BNB0.000105
0x23d96fa0241d5753dbd76b93525db2f8747bdcbcb0f459ce6ea72218f2eec707Transfer112795062021-09-27 12:41:2572 days 4 mins ago0x55f92432db2ed79e4e96857091171ca44b6885fc IN 0x20be67e99f83d7421380acaf18ea6d02c5ac2a2a1 BNB0.000105
0xe3f5a5912560cd8980364e90f2d4a411d5fea20a7405034aa16a094180728ebaTransfer112794252021-09-27 12:37:2272 days 8 mins ago0xf74cdd79dd7d2ce874af1de8e4c642a7b9615188 IN 0x20be67e99f83d7421380acaf18ea6d02c5ac2a2a1 BNB0.000105
0x1f0529151aa38c3821e3bc2b18abbf720fef6aecb1a789e8a5e0076b006c87cdTransfer112792012021-09-27 12:26:0772 days 19 mins ago0x48a1e9ac1c14b0afac0fa0adaa9fc52dd61d71df IN 0x20be67e99f83d7421380acaf18ea6d02c5ac2a2a1 BNB0.000105
0x31832094f36f432824f24f23060e3028016e3f9edf13609f1bee25d5ea347fd7Transfer112791992021-09-27 12:26:0172 days 20 mins ago0x7001856469fb2730cee2bf98e3057638ae4bffe1 IN 0x20be67e99f83d7421380acaf18ea6d02c5ac2a2a5 BNB0.000105
0x8d786da454a637492fdd87ac4054d8dd8b8b1b536bbf1e9f69535a9eb62a53eaTransfer112791012021-09-27 12:21:0472 days 25 mins ago0x0105c121db81126f0eade2c1cbd57ab37b1ed405 IN 0x20be67e99f83d7421380acaf18ea6d02c5ac2a2a1 BNB0.000105
0x06b27862d84d5e85ee312bd482b57d5ed12f64a61252c4c8afb560646486710bTransfer112790702021-09-27 12:19:3172 days 26 mins ago0x2d987fbc19aa6c01a045276215f2272bae2819c0 IN 0x20be67e99f83d7421380acaf18ea6d02c5ac2a2a1 BNB0.0001071
0xd423c43db6a1602351817c2bdcbc8cf69971961d5c9e30f732720fec1fcd6606Transfer112790102021-09-27 12:16:3172 days 29 mins ago0x4faaa0fca1ac3cacf57a53399b2a9ce2096194ef IN 0x20be67e99f83d7421380acaf18ea6d02c5ac2a2a3 BNB0.000105
0xb1ea31a892214b2e45e3bd7b89f0797f2a18c12386d29485ae642adf3a8866b7Transfer112789842021-09-27 12:15:1372 days 30 mins ago0x20be67e99f83d7421380acaf18ea6d02c5ac2a2aOUT0x08f405ba51d9cbc962a00a61905c0e381c87981e0.1433 BNB0.000105
0xcc48e69739b08b6055e3ad5595d4f28840d8da5841cb1fb8ae718aaf73e6f738Transfer112789362021-09-27 12:12:4972 days 33 mins ago0xf5379a28e58a772867a3d4d3008b49ffa819a295 IN 0x20be67e99f83d7421380acaf18ea6d02c5ac2a2a1 BNB0.000105
0xce928ce8368d73027e81e2b8bddcd60269b6caf105a66ebaf4de97f65fa55d86Transfer112786332021-09-27 11:57:1672 days 48 mins ago0x08f405ba51d9cbc962a00a61905c0e381c87981e IN 0x20be67e99f83d7421380acaf18ea6d02c5ac2a2a0.1433 BNB0.000105
0x62576ebbeae56b8a76c40fa3aa5f461a4621cfe18d9caccb1fe7e041620c2ce8Transfer112785822021-09-27 11:54:3872 days 51 mins agoBinance: Hot Wallet 9 IN 0x20be67e99f83d7421380acaf18ea6d02c5ac2a2a4 BNB0.00021
0x3712b570287b3959b23b4e49c3cc2791e0d96038d952f874261c576bfbc5715cTransfer112785802021-09-27 11:54:3272 days 51 mins ago0xcbd094e2901e3e27cc8471e40f85d2408fba0992 IN 0x20be67e99f83d7421380acaf18ea6d02c5ac2a2a1 BNB0.000105
0xe572980f54f8578daaf340a474a0c9b12732f57cbecd822c530ff9a6560a9eb7Transfer112781172021-09-27 11:30:3372 days 1 hr ago0x527634c1574dfbf4aeb7192959e623b4b66428f7 IN 0x20be67e99f83d7421380acaf18ea6d02c5ac2a2a0.41 BNB0.000105
0xf895cb877cc5bfe6aebfb36ad4bf51c8c17eeafdb947168df54c96b3ae192c94Transfer112780192021-09-27 11:25:3972 days 1 hr ago0x0d8820f36204a095de8a65b89bb3ab4156263669 IN 0x20be67e99f83d7421380acaf18ea6d02c5ac2a2a1 BNB0.000105
0x955f06a97d68475007d4d8d7f4aa398d89de56fba29b9b72c163ec3d2ae11ca5Transfer112778302021-09-27 11:16:1272 days 1 hr ago0xb3344855f0f723dc81513990f17e0d0333ec72f9 IN 0x20be67e99f83d7421380acaf18ea6d02c5ac2a2a5 BNB0.000105
0xa801101026627c34914cdbc7c9259420c3b29027e6e27dae9b38ee065f402079Transfer112772052021-09-27 10:44:1872 days 2 hrs ago0x501bf13d898b7948a3a1c39266ddaae536fa2010 IN 0x20be67e99f83d7421380acaf18ea6d02c5ac2a2a1 BNB0.000105
0x1f7aac5bfc4a0cc07fa6932ceb1066791814f60222ebf46b6d99e540e2d62bc2Transfer112771812021-09-27 10:43:0672 days 2 hrs ago0x5788d8078b0186893c12fa5324f227d0ad400c1c IN 0x20be67e99f83d7421380acaf18ea6d02c5ac2a2a1 BNB0.000105
0x1b5feb834975f7b8d1dbe42a2d1677787eaf51984eec561479196669f4f102c1Transfer112769242021-09-27 10:30:1572 days 2 hrs agoHotbit 2 IN 0x20be67e99f83d7421380acaf18ea6d02c5ac2a2a1.0331 BNB0.000147
0x18ebbd7024cc4c012c354b3b0997db86bbbea7156f446810aad891050f7b7ca5Transfer112765862021-09-27 10:13:2072 days 2 hrs ago0x3f85a663314a6e14fe63ad06306378df3f67c6ea IN 0x20be67e99f83d7421380acaf18ea6d02c5ac2a2a3 BNB0.000105
0xe6c7737cc321b6fa9f3005a5acc1a61b274873ba2877581201bd8cb39f65b87bTransfer112753792021-09-27 9:12:3672 days 3 hrs ago0xd6b25ea46bdcdcbcc2a9af3d87774203feb16a3f IN 0x20be67e99f83d7421380acaf18ea6d02c5ac2a2a1 BNB0.000105
0x732b4ed3a66f579e11f1b75de30db1707626e3125d399f0c5bd2b216ec881410Transfer112750102021-09-27 8:54:0972 days 3 hrs ago0x61fe20d4d9bbafe13a0c2cf6ce97364b56cb10c5 IN 0x20be67e99f83d7421380acaf18ea6d02c5ac2a2a5 BNB0.000105
0x3c1a12392a03d1ac9a92c220cf92c73fcf1af3d069c28aecaaf2d73bd7cc5b6dTransfer112749682021-09-27 8:52:0372 days 3 hrs ago0x74baac082c55c4c5ed7def3f4cde4a420b6b83d4 IN 0x20be67e99f83d7421380acaf18ea6d02c5ac2a2a5 BNB0.000105
[ Download CSV Export 
Parent Txn Hash Block From To Value
Loading

Contract Name:
0 BNB

Compiler Version
0

Optimization Enabled:
0 BNB

Other Settings:
-NA-
Block Transaction Gas Used Reward
Age Block Fee Address BC Fee Address Voting Power Jailed Incoming
Block Uncle Number Difficulty Gas Used Reward
Loading
Loading
Make sure to use the "Vote Down" button for any spammy posts, and the "Vote Up" for interesting conversations.